Tracking 23752 objects as of 24-Oct-2021
HD Live streaming from Space Station
objects crossing your sky now

SL-14 DEB

Track SL-14 DEB now!
10-day predictions


NORAD ID: 45303
Int'l Code: 1991-056AR
Perigee: 919.2 km
Apogee: 1,180.4 km
Inclination: 82.6 °
Period: 106.0 minutes
Semi major axis: 7420 km
RCS: Unknown
Launch date: August 15, 1991
Source: Commonwealth of Independent States (former USSR) (CIS)
Launch site: PLESETSK MISSILE AND SPACE COMPLEX (PKMTR)

Note: This is SATELLITE DEBRIS
aabbcc
Your satellite tracking list
Your tracking list is empty




NASA's NSSDC Master Catalog

Two Line Element Set (TLE):
1 45303U 91056AR  21296.52666165  .00000912  00000-0  11242-2 0  9997
2 45303  82.6418 233.8358 0175949 232.6285 125.8728 13.58082997 82208
Source of the keplerian elements: AFSPC